sat.trackr.live / text

‹ back to catalog

ONEWEB-0261

NORAD 48979 · 2021-060N

PAYLOAD ACTIVE UNKNOWN

§ Identity

Operator
Country
UK
Launch date
2021-07-01
Launch site
VOSTO
Launch vehicle
Mass (kg)
RCS (m²)

Purposes: comms

External: N2YO · Heavens-Above · Gunter

§ Orbital elements

Epoch: 2026-09-20T03:09:13.612320Z

Period
109.37 min
Inclination
87.9144°
Eccentricity
0.0002136
Mean motion
13.16594494 rev/d
Perigee alt
1,196.1 km
Apogee alt
1,199.4 km
Semi-major
7,575.9 km
B*
9.7629e-5
RAAN
209.9308°
Arg perigee
68.8243°
Mean anomaly
291.3116°
Rev number
25,215

§ Raw data

ONEWEB-02611 48979U 21060N   26263.13140755  .00000050  00000+0  97629-4 0  99922 48979  87.9144 209.9308 0002136  68.8243 291.3116 13.16594494252150

JSON: /api/v1/satellites/48979 · /tle

For live sub-satellite position, see the globe view (requires WebGL).

§ Visibility from observer

Set your observer location to see the next 7 days of passes ≥ 10°. The values pass through the URL so the page stays shareable.

No JS? Fill the form by hand. The geolocation button needs JavaScript.